Location: Unspecified
(42.4919°N, 0.0000°E)
Time: 20:36:16
(UTC+00:00)

CZ-6A DEB - Visible Passes

Search period start: 04 April 2026 00:00
Search period end: 14 April 2026 00:00
Orbit: 607 x 715 km, 98.6° (Epoch: 29 March)

Date Brightness Start Highest point End Pass type
(mag) Time Alt. Az. Time Alt. Az. Time Alt. Az.
4 Apr ? 19:36:27 13° ENE 19:37:30 14° ENE 19:39:55 10° NNE visible
4 Apr ? 21:14:27 59° WNW 21:14:27 59° WNW 21:18:24 10° NNW visible
5 Apr ? 20:06:22 26° ENE 20:06:51 26° ENE 20:10:37 10° N visible
5 Apr ? 21:44:22 31° WNW 21:44:22 31° WNW 21:47:41 10° NNW visible
6 Apr ? 20:36:16 49° ENE 20:36:17 49° ENE 20:40:40 10° N visible
6 Apr ? 22:14:15 16° WNW 22:14:15 16° WNW 22:16:20 10° NW visible
7 Apr ? 19:28:07 10° E 19:29:35 12° ENE 19:31:07 10° NE visible
7 Apr ? 21:06:06 76° NW 21:06:06 76° NW 21:10:19 10° NNW visible
8 Apr ? 19:57:55 20° E 19:58:47 21° ENE 20:02:11 10° NNE visible
8 Apr ? 21:35:55 39° W 21:35:55 39° W 21:39:38 10° NNW visible
9 Apr ? 20:27:43 39° E 20:28:04 40° ENE 20:32:15 10° N visible
9 Apr ? 22:05:41 20° W 22:05:41 20° W 22:08:25 10° NW visible
10 Apr ? 20:57:27 80° ENE 20:57:27 80° ENE 21:01:55 10° NNW visible
11 Apr ? 19:49:11 16° E 19:50:25 17° ENE 19:53:20 10° NNE visible
11 Apr ? 21:27:09 50° W 21:27:09 50° W 21:31:14 10° NNW visible
12 Apr ? 20:18:51 30° E 20:19:34 32° ENE 20:23:30 10° N visible
12 Apr ? 21:56:49 25° W 21:56:49 25° W 22:00:05 10° NW visible
13 Apr ? 20:48:29 61° E 20:48:47 63° ENE 20:53:10 10° N visible
13 Apr ? 22:26:27 13° W 22:26:27 13° W 22:27:58 10° WNW visible
